Regional Weather Roundup
Issued by NWS

Home | Current Version | Previous Version | Text Only | Print | Product List | Glossary On
Versions: 1 2 3 4 5 6 7 8 9 10 11 12 13 14 15 16 17 18 19 20 21 22 23 24 25 26 27 28 29 30 31 32 33 34 35 36 37 38 39 40 41 42 43 44 45 46 47 48 49 50
000
ASUS43 KOAX 032213
RWRNE

WEATHER ROUNDUP FOR NEBRASKA
NATIONAL WEATHER SERVICE OMAHA NE
400 PM CST SAT DEC 03 2022

NOTES: SATELLITE DATA IS BEING USED TO AUGMENT CLOUD COVER ABOVE
       12000 FEET.
       "FAIR" INDICATES FEW OR NO CLOUDS BELOW 12,000 FEET WITH NO
       SIGNIFICANT WEATHER AND/OR OBSTRUCTIONS TO VISIBILITY.


NEZ001>004-019>022-054>056-032300-
NEBRASKA PANHANDLE

CITY           SKY/WX    TMP DP  RH WIND       PRES   REMARKS
SCOTTSBLUFF    PTSUNNY   36  24  62 E6        30.16F WCI  31
ALLIANCE       PTSUNNY   37  19  48 CALM      30.16S
CHADRON        MOSUNNY   42  13  30 NE7       30.14F
GORDON         MOSUNNY   37  14  39 SW9       30.14F WCI  31
KIMBALL        PTSUNNY   34  21  60 CALM      30.17S
SIDNEY         PTSUNNY   37  17  44 SW7       30.17S WCI  32
$$

NEZ057>060-069>072-079>082-032300-
SOUTHWEST NEBRASKA

CITY           SKY/WX    TMP DP  RH WIND       PRES   REMARKS
NORTH PLATTE   MOSUNNY   48   9  20 SW16G22   30.23F
GRANT          FAIR      45   7  21 S14G21    30.20S
IMPERIAL       MOSUNNY   42   5  21 SW17G28   30.21F
LEXINGTON      MOSUNNY   45   8  22 SW20G26   30.27S
MCCOOK         MOSUNNY   44   4  19 SW20G26   30.27F
OGALLALA       MOSUNNY   47  13  25 SW14      30.19F
$$

NEZ005>010-023>029-035>040-094-032300-
NORTH CENTRAL NEBRASKA

CITY           SKY/WX    TMP DP  RH WIND       PRES   REMARKS
VALENTINE      PTCLDY    43  15  32 W7        30.18S
AINSWORTH      CLEAR     42  17  36 W9        30.19S
BROKEN BOW     MOCLDY    43  14  31 S10       30.23F
O`NEILL        PTCLDY    38  17  41 SW10      30.23S WCI  32
ORD            PTCLDY    41  14  33 SW16G29   30.25F
THEDFORD       PTCLDY    43  17  36 SW7       30.21S
$$

NEZ041-046>049-061>064-073>077-083>087-032300-
SOUTH CENTRAL NEBRASKA

CITY           SKY/WX    TMP DP  RH WIND       PRES   REMARKS
GRAND ISLAND   PTCLDY    40  12  32 S17       30.32F WCI  31
AURORA         PTCLDY    39  12  33 SW20      30.34S WCI  29
HASTINGS       PTCLDY    38  13  35 S13G23    30.33F WCI  30
HEBRON         PTCLDY    34  14  43 S9        30.40F WCI  27
HOLDREGE       MOSUNNY   40   6  24 SW21G26   30.28F WCI  31
KEARNEY        PTCLDY    42   8  24 SW21G29   30.29F
YORK             N/A     37  10  32 SW20      30.35F WCI  27
$$

NEZ011>018-030>034-042>045-032300-
NORTHEAST NEBRASKA

CITY           SKY/WX    TMP DP  RH WIND       PRES   REMARKS
NORFOLK        PTCLDY    40  14  34 S14G22    30.29F WCI  32
ALBION         PTCLDY    40  11  30 SW14      30.29S WCI  32
BLAIR          PTCLDY    32   9  39 S13       30.39S WCI  22
COLUMBUS       PTCLDY    40  12  32 S14       30.35S WCI  32
FREMONT        PTCLDY    35  11  37 S12G17    30.39S WCI  27
TEKAMAH        PTCLDY    31  10  41 S15       30.40S WCI  20
WAYNE          PTCLDY    37  17  43 S14       30.31F WCI  29
$$

NEZ050>053-065>068-078-088>093-032300-
SOUTHEAST NEBRASKA

CITY           SKY/WX    TMP DP  RH WIND       PRES   REMARKS
LINCOLN        PTCLDY    34  11  38 S15       30.41F WCI  24
OMAHA EPPLEY   MOCLDY    31  10  41 S10       30.42F WCI  22
BEATRICE       PTCLDY    32  12  42 S7        30.42F WCI  26
FALLS CITY     MOCLDY    32  11  41 SW8       30.47F WCI  25
NEBRASKA CITY  PTCLDY    30  10  42 SW9       30.45S WCI  22
PLATTSMOUTH    PTCLDY    31   9  40 S14         N/A  WCI  20
$$

NEZ044-045-051>053-067-032300-
OMAHA AREA

CITY           SKY/WX    TMP DP  RH WIND       PRES   REMARKS
OMAHA EPPLEY   MOCLDY    31  10  41 S10       30.42F WCI  22
BLAIR          PTCLDY    32   9  39 S13       30.39S WCI  22
FREMONT        PTCLDY    35  11  37 S12G17    30.39S WCI  27
MILLARD        PTCLDY    32   8  37 S7        30.42F WCI  25
OFFUTT AFB     PTCLDY    31   7  35 S13       30.45F WCI  22
PLATTSMOUTH    PTCLDY    31   9  40 S14         N/A  WCI  20
WAHOO          PTCLDY    34  10  36 S12       30.39F WCI  25
$$



USA.gov is the U.S. government's official web portal to all federal, state and local government web resources and services.